Starlink 11523

operational
NORAD ID: 62565 Int'l Des: 2025-006 Owner: SPXS Country: US Constellation: starlink
LEOCIRCULAR

关于 Starlink 11523

正在加载描述...

实时位置

正在加载3D地球...

即将过境

高度历史

Altitude vs Time

uPlot chart will show altitude changes over time

两行轨道根数

1 62565U 25006M 25301.46143446 .00283017 00000-0 21276-2 0 9991
2 62565 42.9994 217.1604 0000789 328.7104 31.3717 15.70920552 45808
Epoch: Oct 28, 2025 • Age: 22 hours

当前状态

高度 356.7 km
速度 7.70 km/s
星下点 37.31°N, 97.69°E
发射日期 Jan 10, 2025
运行时间 0.7 years
类型 internet

技术详情

分类 Payload
质量 960.00 kg
干质量 910.00 kg
总质量 960.00 kg
长度 0.30 m
直径 4.10 m
跨度 29.00 m
形状 Box + pan
制造商 SPXS
平台类型 Starlink V2MD
阶段状态 In Orbit
所有者/国家 SPXS/US

大型星座

Loading constellations...